Location: Alladorf
(49.9620°N, 11.3790°E)
Time: 20:56:28
(UTC+00:00)

Cosmos 1151 Rocket - Pass Details

Date: 29 November 2020
Orbit: 593 x 615 km, 82.5° (Epoch: 24 January)

Event Time Altitude Azimuth Distance (km) Brightness Sun altitude
Exits shadow 04:17:04 28° 190° (S) 1,135 4.3 -23.6°
Drops below altitude 10° 04:19:09 10° 182° (S) 1,934 5.6 -23.2°
Sets 04:21:22 0° 180° (S) 2,834 6.5 -22.9°
